Alexandria, LA

4:18 AM CDT on April 25, 2018 (GMT -0500)
Alexandria International

Weather History for KAEX - February, 2014

Change the Weather History Date:

Monday, February 3, 2014

  Actual Average Record
Temperature  
Mean Temperature 40 °F 50 °F  
Max Temperature 43 °F 61 °F 82 °F (1974)
Min Temperature 36 °F 39 °F 6 °F (1951)
Degree Days  
Heating Degree Days 25 15  
Month to date heating degree days 42 47  
Since 1 July heating degree days 1611 1338  
Moisture  
Dew Point 35 °F    
Average Humidity 84    
Maximum Humidity 92    
Minimum Humidity 76    
Precipitation  
Precipitation 0.00 in 0.15 in 3.21 in (2012)
Month to date precipitation 0.73 0.47  
Year to date precipitation 2.45 5.69  
Snow  
Snow 0.00 in - T in (1937)
Month to date snowfall 0.0  
Since 1 July snowfall 4.5  
Snow Depth 0.00 in    
Sea Level Pressure  
Sea Level Pressure 30.18 in    
Wind  
Wind Speed 9 mph (NNE)    
Max Wind Speed 17 mph    
Max Gust Speed 22 mph    
Visibility 9 miles    
Events      
T = Trace of Precipitation, MM = Missing Value Source: NWS Daily Summary

Daily Weather History Graph

Daily Weather History Graph

Search for Another Location

Airport or City:

Astronomy

Feb. 03, 2014 Rise Set
Actual Time 7:01 AM CST 5:47 PM CST
Civil Twilight 6:35 AM CST 6:12 PM CST
Nautical Twilight 6:07 AM CST 6:41 PM CST
Astronomical Twilight 5:38 AM CST 7:09 PM CST
Moon 9:23 AM CST (2/3) 10:16 PM CST (2/3)
Length of Visible Light 11h 36m
Length of Day
10h 45m
Waxing Crescent, 20% of the Moon is Illuminated
Feb 3
Waxing Crescent
Feb 6
First Quarter
Feb 14
Full
Feb 22
Last Quarter
Mar 1
New

Hourly Weather History & Observations

Time (CST) Temp. Windchill Dew Point Humidity Pressure Visibility Wind Dir Wind Speed Gust Speed Precip Events Conditions
12:53 AM 37.9 °F 30.0 °F 35.1 °F 89% 30.15 in 10.0 mi North 12.7 mph - N/A   Overcast
1:53 AM 37.0 °F 30.4 °F 35.1 °F 93% 30.16 in 8.0 mi North 9.2 mph - N/A   Overcast
2:33 AM 37.0 °F 30.4 °F 36.0 °F 96% 30.15 in 9.0 mi North 9.2 mph - N/A   Overcast
2:53 AM 37.0 °F 30.4 °F 35.1 °F 93% 30.18 in 10.0 mi North 9.2 mph - N/A   Overcast
3:19 AM 37.0 °F 28.9 °F 35.1 °F 93% 30.17 in 9.0 mi North 12.7 mph 19.6 mph N/A   Overcast
3:44 AM 37.0 °F 31.0 °F 35.1 °F 93% 30.17 in 7.0 mi North 8.1 mph - N/A   Overcast
3:53 AM 37.0 °F 31.0 °F 35.1 °F 93% 30.19 in 6.0 mi North 8.1 mph - N/A   Overcast
4:53 AM 37.0 °F 29.8 °F 35.1 °F 93% 30.19 in 10.0 mi North 10.4 mph - N/A   Overcast
5:53 AM 37.0 °F 29.3 °F 35.1 °F 93% 30.19 in 10.0 mi North 11.5 mph - N/A   Overcast
6:53 AM 36.0 °F 28.5 °F 34.0 °F 93% 30.21 in 10.0 mi NNE 10.4 mph 19.6 mph N/A   Overcast
7:53 AM 37.0 °F 32.4 °F 34.0 °F 89% 30.22 in 10.0 mi NNE 5.8 mph - N/A   Overcast
8:48 AM 37.4 °F 31.4 °F 33.8 °F 87% 30.22 in 10.0 mi NNE 8.1 mph - N/A   Overcast
8:53 AM 37.0 °F 29.8 °F 34.0 °F 89% 30.24 in 10.0 mi NNE 10.4 mph - N/A   Overcast
9:53 AM 37.9 °F 32.7 °F 34.0 °F 86% 30.26 in 10.0 mi North 6.9 mph - N/A   Overcast
10:53 AM 39.0 °F 32.8 °F 35.1 °F 86% 30.25 in 10.0 mi NE 9.2 mph - N/A   Overcast
11:53 AM 39.9 °F 34.5 °F 36.0 °F 86% 30.22 in 10.0 mi NE 8.1 mph - N/A   Overcast
12:53 PM 42.1 °F 38.4 °F 37.0 °F 82% 30.18 in 10.0 mi Variable 5.8 mph - N/A   Overcast
1:53 PM 43.0 °F 38.8 °F 37.0 °F 80% 30.17 in 10.0 mi North 6.9 mph - N/A   Overcast
2:53 PM 42.1 °F 37.1 °F 37.0 °F 82% 30.17 in 10.0 mi ENE 8.1 mph - N/A   Overcast
3:53 PM 42.1 °F 37.1 °F 36.0 °F 79% 30.17 in 10.0 mi NE 8.1 mph - N/A   Overcast
4:53 PM 41.0 °F 35.8 °F 36.0 °F 82% 30.17 in 10.0 mi NE 8.1 mph - N/A   Overcast
5:53 PM 39.9 °F 34.5 °F 35.1 °F 83% 30.17 in 10.0 mi NNE 8.1 mph - N/A   Overcast
6:53 PM 39.0 °F 32.8 °F 35.1 °F 86% 30.15 in 10.0 mi NE 9.2 mph - N/A   Overcast
7:53 PM 37.9 °F 31.5 °F 35.1 °F 89% 30.14 in 10.0 mi ENE 9.2 mph - N/A   Overcast
8:53 PM 37.0 °F 30.4 °F 35.1 °F 93% 30.15 in 10.0 mi ENE 9.2 mph - N/A   Overcast
9:00 PM 37.0 °F 30.4 °F 35.1 °F 93% 30.12 in 10.0 mi East 9.2 mph - N/A   Overcast
9:53 PM 37.0 °F 30.4 °F 35.1 °F 93% 30.14 in 10.0 mi East 9.2 mph - N/A   Overcast
10:53 PM 37.0 °F 31.6 °F 35.1 °F 93% 30.12 in 8.0 mi East 6.9 mph - N/A   Overcast
11:53 PM 37.9 °F 32.7 °F 36.0 °F 93% 30.09 in 6.0 mi ENE 6.9 mph - N/A   Overcast